This demonstration page uses our WeatherBlox Daily Observations layout. Learn more.

38.88101, -77.10428

Hourly Observations for August 21, 2015

Temp ( °F °C ) Dew Point ( °F °C ) Humidity (%) Winds ( mph kmh ) Pressure ( in mb ) Visibility ( mi km ) Precip ( " mm )
12:52 am 00:52 Partly Cloudy 74 23.3 72 22.2 94 94 N 6 9 29.97 1015 10 16.0934 0 0
1:36 am 01:36 Partly Cloudy 73 23 72 22 94 94 N 6 9 29.97 1015 10 16.0934 0 0
1:52 am 01:52 Mostly Cloudy 74 23.3 72 22.2 94 94 N 6 9 29.97 1015 10 16.0934 0 0
2:52 am 02:52 Mostly Clear 74 23.3 71 21.7 91 91 NNW 9 15 29.97 1015 10 16.0934 0 0
3:52 am 03:52 Mostly Clear 74 23.3 69 20.6 85 85 NNW 9 15 29.98 1015 10 16.0934 0 0
4:52 am 04:52 Mostly Clear 73 22.8 67 19.4 81 81 NNW 10 17 29.99 1016 10 16.0934 0 0
5:52 am 05:52 Mostly Cloudy 72 22.2 67 19.4 84 84 NNW 10 17 30.01 1016 10 16.0934 0 0
6:52 am 06:52 Mostly Cloudy 71 21.7 65 18.3 81 81 NNW 9 15 30.04 1017 10 16.0934 0 0
7:52 am 07:52 Partly Cloudy 73 22.8 63 17.2 71 71 NNW 13 20 30.06 1018 10 16.0934 0 0
8:52 am 08:52 Partly Cloudy 75 23.9 61 16.1 62 62 NNW 13 20 30.08 1019 10 16.0934 0 0
9:52 am 09:52 Mostly Cloudy 78 25.6 58 14.4 50 50 N 17 28 30.09 1019 10 16.0934 0 0
10:52 am 10:52 Mostly Cloudy 80 26.7 58 14.4 47 47 N 16 26 30.09 1019 10 16.0934 0 0
11:52 am 11:52 Mostly Cloudy 82 27.8 56 13.3 41 41 N 13 20 30.09 1019 10 16.0934 0 0
12:52 pm 12:52 Mostly Cloudy 82 27.8 56 13.3 41 41 NNW 12 19 30.09 1019 10 16.0934 0 0
1:52 pm 13:52 Mostly Cloudy 84 28.9 56 13.3 38 38 N 7 11 30.07 1018 10 16.0934 0 0
2:52 pm 14:52 Mostly Cloudy 86 30 55 12.8 35 35 NNW 7 11 30.06 1018 10 16.0934 0 0
3:52 pm 15:52 Mostly Cloudy 85 29.4 54 12.2 35 35 VRB 3 6 30.05 1018 10 16.0934 0 0
4:52 pm 16:52 Mostly Cloudy 84 28.9 54 12.2 36 36 NW 8 13 30.04 1017 10 16.0934 0 0
5:52 pm 17:52 Mostly Cloudy 83 28.3 54 12.2 37 37 WNW 10 17 30.04 1017 10 16.0934 0 0
6:52 pm 18:52 Mostly Cloudy 81 27.2 54 12.2 39 39 NW 9 15 30.04 1017 10 16.0934 0 0
7:52 pm 19:52 Mostly Cloudy 78 25.6 54 12.2 43 43 NNW 9 15 30.05 1018 10 16.0934 0 0
8:52 pm 20:52 Mostly Cloudy 77 25 56 13.3 48 48 NNW 6 9 30.05 1018 10 16.0934 0 0
9:52 pm 21:52 Mostly Cloudy 76 24.4 57 13.9 52 52 N 6 9 30.07 1018 10 16.0934 0 0
10:52 pm 22:52 Partly Cloudy 74 23.3 59 15 60 60 N 6 9 30.09 1019 10 16.0934 0 0
11:52 pm 23:52 Partly Cloudy 73 22.8 60 15.6 64 64 N 3 6 30.09 1019 10 16.0934 0 0

Powered by AerisWeather